Location: Montclair
(37.8322°N, 122.2092°W)
Time: 14:47:44
(UTC+00:00)

Cosmos 1867 - Pass Details

Date: 08 September 2024
Orbit: 772 x 802 km, 65.0° (Epoch: 07 October)

Event Time Altitude Azimuth Distance (km) Brightness Sun altitude
Exits shadow 13:04:05 - 216° (SW) 2,981 6.1 -8.8°
Reaches altitude 10° 13:05:45 10° 219° (SW) 2,349 5.6 -8.5°
Maximum altitude 13:11:08 68° 302° (WNW) 854 3.6 -7.5°
Drops below altitude 10° 13:16:36 10° 26° (NNE) 2,378 6.6 -6.4°
Sets 13:19:03 0° 29° (NNE) 3,314 7.4 -6.0°
